ETD945 OPLA-OMAA

Flight info

Callsign ETD945
Flight time 2h 45m
Altitude 30000
Route MIMAL G214 RK J173 SK J132 BIREX DCT ADGUL T385 TAPDO A454 VUSET R462 MIXAM P899 ROVOS
Aircraft MD11/H-SDE1E2E3FGHIJ2J3J4J5M1RWXY/LB1D1

Departure

Time 2026-04-22 22:37
Airport Allama Iqbal International Airport (OPLA)

Arrival

Time 2026-04-23 01:22
Airport Zayed International Airport (OMAA)
Time Latitude Longitude Altitude Speed Heading
2026-04-22 22:12 31.52721 74.40109 726 ft 0 kts 270°
2026-04-22 22:27 31.52721 74.40110 726 ft 2 kts 270°
2026-04-22 22:28 31.52720 74.40123 727 ft 4 kts 268°
2026-04-22 22:28 31.52723 74.40147 725 ft 4 kts 226°
2026-04-22 22:28 31.52739 74.40158 724 ft 4 kts 180°
2026-04-22 22:28 31.52761 74.40157 726 ft 0 kts 179°
2026-04-22 22:31 31.52748 74.40157 725 ft 4 kts 179°
2026-04-22 22:32 31.52707 74.40158 729 ft 8 kts 179°
2026-04-22 22:32 31.52666 74.40203 727 ft 10 kts 110°
2026-04-22 22:32 31.52684 74.40291 729 ft 14 kts 53°
2026-04-22 22:32 31.52755 74.40377 729 ft 16 kts 46°
2026-04-22 22:33 31.52855 74.40461 728 ft 19 kts 19°
2026-04-22 22:33 31.52983 74.40510 728 ft 19 kts 23°
2026-04-22 22:33 31.53088 74.40575 728 ft 15 kts 31°
2026-04-22 22:33 31.53185 74.40652 729 ft 19 kts 34°
2026-04-22 22:34 31.53311 74.40689 729 ft 18 kts
2026-04-22 22:34 31.53426 74.40691 728 ft 15 kts
2026-04-22 22:34 31.53519 74.40686 728 ft 12 kts 349°
2026-04-22 22:34 31.53582 74.40652 728 ft 8 kts 324°
2026-04-22 22:35 31.53625 74.40602 729 ft 9 kts 309°
2026-04-22 22:35 31.53642 74.40546 732 ft 7 kts 285°
2026-04-22 22:35 31.53637 74.40496 731 ft 2 kts 230°
2026-04-22 22:35 31.53622 74.40490 730 ft 4 kts 199°
2026-04-22 22:36 31.53589 74.40485 731 ft 6 kts 185°
2026-04-22 22:36 31.53420 74.40479 730 ft 59 kts 180°
2026-04-22 22:36 31.52743 74.40471 727 ft 133 kts 181°
2026-04-22 22:36 31.51615 74.40456 731 ft 186 kts 179°
2026-04-22 22:37 31.50302 74.40442 1254 ft 189 kts 180°
2026-04-22 22:37 31.48970 74.40409 1886 ft 194 kts 179°
2026-04-22 22:37 31.47593 74.40291 2420 ft 200 kts 193°
2026-04-22 22:37 31.46431 74.39496 3000 ft 198 kts 233°
2026-04-22 22:38 31.45829 74.38076 3571 ft 196 kts 252°
2026-04-22 22:38 31.45392 74.36532 3997 ft 208 kts 253°
2026-04-22 22:38 31.44926 74.34795 4117 ft 239 kts 253°
2026-04-22 22:38 31.44407 74.32820 4253 ft 269 kts 253°
2026-04-22 22:39 31.43841 74.30633 4710 ft 286 kts 253°
2026-04-22 22:39 31.43267 74.28386 5607 ft 289 kts 253°
2026-04-22 22:39 31.42695 74.26127 6491 ft 290 kts 254°
2026-04-22 22:39 31.42121 74.23848 7331 ft 293 kts 254°
2026-04-22 22:40 31.41544 74.21551 8138 ft 295 kts 254°
2026-04-22 22:40 31.40965 74.19239 8956 ft 298 kts 254°
2026-04-22 22:40 31.40381 74.16902 9736 ft 300 kts 254°
2026-04-22 22:40 31.39777 74.14486 10018 ft 322 kts 254°
2026-04-22 22:41 31.39125 74.11873 10138 ft 348 kts 254°
2026-04-22 22:41 31.38430 74.09095 10638 ft 358 kts 254°
2026-04-22 22:41 31.37725 74.06279 11338 ft 363 kts 254°
2026-04-22 22:41 31.37010 74.03427 12017 ft 367 kts 255°
2026-04-22 22:42 31.36287 74.00545 12688 ft 372 kts 255°
2026-04-22 22:42 31.35475 73.97647 13267 ft 378 kts 247°
2026-04-22 22:42 31.34131 73.94976 13857 ft 384 kts 235°
2026-04-22 22:42 31.32459 73.92526 14459 ft 387 kts 230°
2026-04-22 22:43 31.30674 73.90156 15076 ft 389 kts 229°
2026-04-22 22:43 31.28861 73.87801 15686 ft 391 kts 229°
2026-04-22 22:43 31.27065 73.85452 16288 ft 392 kts 229°
2026-04-22 22:43 31.25254 73.83056 16873 ft 394 kts 229°
2026-04-22 22:44 31.23444 73.80639 17470 ft 396 kts 229°
2026-04-22 22:44 31.21636 73.78210 18025 ft 397 kts 229°
2026-04-22 22:44 31.19823 73.75766 18501 ft 399 kts 229°
2026-04-22 22:44 31.17997 73.73303 18930 ft 402 kts 229°
2026-04-22 22:45 31.16160 73.70824 19383 ft 404 kts 229°
2026-04-22 22:45 31.14318 73.68338 19804 ft 406 kts 229°
2026-04-22 22:45 31.12465 73.65839 20208 ft 409 kts 229°
2026-04-22 22:45 31.10594 73.63319 20657 ft 411 kts 230°
2026-04-22 22:46 31.08719 73.60794 21097 ft 413 kts 230°
2026-04-22 22:46 31.06832 73.58255 21530 ft 416 kts 230°
2026-04-22 22:46 31.04930 73.55697 21982 ft 418 kts 230°
2026-04-22 22:46 31.03019 73.53130 22427 ft 421 kts 230°
2026-04-22 22:47 31.01119 73.50579 22867 ft 424 kts 230°
2026-04-22 22:47 30.99179 73.47975 23314 ft 426 kts 230°
2026-04-22 22:47 30.97198 73.45319 23687 ft 429 kts 230°
2026-04-22 22:47 30.95260 73.42722 24073 ft 432 kts 230°
2026-04-22 22:48 30.93280 73.40071 24454 ft 435 kts 230°
2026-04-22 22:48 30.91284 73.37399 24831 ft 438 kts 230°
2026-04-22 22:48 30.89278 73.34718 25220 ft 441 kts 230°
2026-04-22 22:48 30.87256 73.32016 25612 ft 444 kts 230°
2026-04-22 22:49 30.85224 73.29302 25998 ft 447 kts 230°
2026-04-22 22:49 30.83177 73.26571 26384 ft 449 kts 230°
2026-04-22 22:49 30.81112 73.23818 26778 ft 452 kts 230°
2026-04-22 22:49 30.79030 73.21056 27144 ft 455 kts 230°
2026-04-22 22:50 30.76934 73.18282 27509 ft 458 kts 230°
2026-04-22 22:50 30.74825 73.15490 27872 ft 461 kts 230°
2026-04-22 22:50 30.72702 73.12677 28227 ft 463 kts 230°
2026-04-22 22:50 30.70575 73.09854 28582 ft 466 kts 230°
2026-04-22 22:51 30.68431 73.07009 28944 ft 469 kts 230°
2026-04-22 22:51 30.66274 73.04148 29261 ft 472 kts 230°
2026-04-22 22:51 30.64105 73.01272 29590 ft 474 kts 230°
2026-04-22 22:51 30.61927 72.98388 29715 ft 476 kts 230°
2026-04-22 22:52 30.60477 72.96467 29719 ft 479 kts 230°
2026-04-22 22:52 30.55358 72.89698 29729 ft 480 kts 229°
2026-04-22 22:53 30.51665 72.84823 29734 ft 480 kts 229°
2026-04-22 22:53 30.47259 72.79013 29729 ft 480 kts 229°
2026-04-22 22:54 30.42881 72.73250 29731 ft 480 kts 229°
2026-04-22 22:54 30.38471 72.67453 29730 ft 479 kts 229°
2026-04-22 22:55 30.34052 72.61652 29718 ft 479 kts 229°
2026-04-22 22:55 30.27443 72.52993 29726 ft 478 kts 229°
2026-04-22 22:56 30.23022 72.47255 29728 ft 478 kts 227°
2026-04-22 22:56 30.17963 72.42262 29730 ft 479 kts 217°
2026-04-22 22:57 30.12521 72.37819 29730 ft 479 kts 216°
2026-04-22 22:57 30.07071 72.33390 29730 ft 479 kts 216°
2026-04-22 22:58 30.01649 72.28895 29731 ft 479 kts 217°
2026-04-22 22:58 29.96287 72.24419 29730 ft 479 kts 217°
2026-04-22 22:59 29.90899 72.19922 29731 ft 478 kts 216°
2026-04-22 22:59 29.85615 72.15288 29729 ft 477 kts 223°
2026-04-22 23:00 29.81070 72.09734 29736 ft 476 kts 230°
2026-04-22 23:00 29.76790 72.03915 29736 ft 476 kts 230°
2026-04-22 23:01 29.72476 71.98133 29734 ft 476 kts 229°
2026-04-22 23:01 29.68111 71.92393 29729 ft 477 kts 229°
2026-04-22 23:02 29.63727 71.86667 29730 ft 475 kts 229°
2026-04-22 23:02 29.59360 71.80971 29730 ft 475 kts 229°
2026-04-22 23:03 29.54995 71.75282 29727 ft 475 kts 229°
2026-04-22 23:03 29.50628 71.69598 29727 ft 475 kts 229°
2026-04-22 23:04 29.46257 71.63916 29727 ft 475 kts 229°
2026-04-22 23:04 29.41911 71.58274 29724 ft 475 kts 229°
2026-04-22 23:05 29.37530 71.52596 29725 ft 477 kts 229°
2026-04-22 23:05 29.33121 71.46890 29724 ft 479 kts 229°
2026-04-22 23:06 29.28683 71.41192 29721 ft 479 kts 228°
2026-04-22 23:06 29.24203 71.35552 29722 ft 479 kts 228°
2026-04-22 23:07 29.19716 71.29917 29721 ft 479 kts 228°
2026-04-22 23:07 29.15233 71.24280 29721 ft 479 kts 228°
2026-04-22 23:08 29.10750 71.18646 29723 ft 479 kts 228°
2026-04-22 23:08 29.06258 71.13009 29721 ft 479 kts 228°
2026-04-22 23:09 29.01770 71.07384 29723 ft 479 kts 228°
2026-04-22 23:09 28.97309 71.01801 29727 ft 479 kts 228°
2026-04-22 23:10 28.92816 70.96186 29724 ft 479 kts 228°
2026-04-22 23:10 28.88319 70.90573 29725 ft 479 kts 228°
2026-04-22 23:11 28.83824 70.84971 29723 ft 479 kts 228°
2026-04-22 23:11 28.79326 70.79373 29722 ft 478 kts 228°
2026-04-22 23:12 28.74822 70.73776 29725 ft 478 kts 228°
2026-04-22 23:12 28.70311 70.68200 29724 ft 478 kts 227°
2026-04-22 23:13 28.65832 70.62670 29738 ft 477 kts 227°
2026-04-22 23:13 28.61329 70.57101 29722 ft 477 kts 227°
2026-04-22 23:14 28.56832 70.51542 29722 ft 477 kts 227°
2026-04-22 23:14 28.52337 70.45993 29740 ft 477 kts 227°
2026-04-22 23:15 28.47840 70.40450 29719 ft 477 kts 227°
2026-04-22 23:15 28.43337 70.34907 29721 ft 477 kts 227°
2026-04-22 23:16 28.38837 70.29375 29722 ft 477 kts 227°
2026-04-22 23:16 28.34633 70.23558 29729 ft 476 kts 238°
2026-04-22 23:17 28.31603 70.16855 29717 ft 478 kts 245°
2026-04-22 23:17 28.28864 70.09993 29731 ft 478 kts 245°
2026-04-22 23:18 28.26049 70.03164 29717 ft 478 kts 244°
2026-04-22 23:18 28.23169 69.96371 29734 ft 478 kts 244°
2026-04-22 23:19 28.20272 69.89598 29719 ft 478 kts 244°
2026-04-22 23:19 28.17390 69.82867 29721 ft 476 kts 243°
2026-04-22 23:20 28.14500 69.76123 29736 ft 476 kts 243°
2026-04-22 23:20 28.11606 69.69380 29720 ft 476 kts 243°
2026-04-22 23:21 28.08707 69.62634 29737 ft 475 kts 243°
2026-04-22 23:21 28.05810 69.55907 29718 ft 475 kts 243°
2026-04-22 23:22 28.02908 69.49177 29722 ft 474 kts 243°
2026-04-22 23:22 28.00013 69.42476 29721 ft 474 kts 243°
2026-04-22 23:23 27.97119 69.35821 29723 ft 474 kts 243°
2026-04-22 23:23 27.94206 69.29142 29722 ft 474 kts 243°
2026-04-22 23:24 27.91297 69.22455 29715 ft 473 kts 243°
2026-04-22 23:24 27.88392 69.15777 29722 ft 472 kts 244°
2026-04-22 23:25 27.85496 69.09125 29719 ft 472 kts 244°
2026-04-22 23:25 27.82590 69.02466 29721 ft 472 kts 244°
2026-04-22 23:26 27.79686 68.95819 29722 ft 472 kts 244°
2026-04-22 23:26 27.76773 68.89166 29722 ft 472 kts 244°
2026-04-22 23:27 27.73859 68.82521 29718 ft 473 kts 244°
2026-04-22 23:27 27.71350 68.75680 29720 ft 472 kts 255°
2026-04-22 23:28 27.70058 68.68406 29716 ft 473 kts 261°
2026-04-22 23:28 27.69019 68.61120 29716 ft 473 kts 260°
2026-04-22 23:29 27.67900 68.53811 29714 ft 473 kts 259°
2026-04-22 23:29 27.66719 68.46507 29714 ft 474 kts 259°
2026-04-22 23:30 27.65517 68.39193 29709 ft 474 kts 259°
2026-04-22 23:30 27.64314 68.31884 29712 ft 474 kts 259°
2026-04-22 23:31 27.63109 68.24580 29708 ft 474 kts 259°
2026-04-22 23:31 27.61901 68.17279 29704 ft 474 kts 260°
2026-04-22 23:32 27.60695 68.10013 29705 ft 474 kts 260°
2026-04-22 23:32 27.59476 68.02699 29704 ft 474 kts 259°
2026-04-22 23:33 27.58255 67.95389 29705 ft 474 kts 259°
2026-04-22 23:33 27.57030 67.88085 29701 ft 474 kts 259°
2026-04-22 23:34 27.55795 67.80832 29699 ft 474 kts 259°
2026-04-22 23:34 27.54547 67.73543 29699 ft 474 kts 259°
2026-04-22 23:35 27.53305 67.66243 29708 ft 474 kts 259°
2026-04-22 23:35 27.52066 67.58952 29707 ft 474 kts 259°
2026-04-22 23:36 27.50822 67.51655 29730 ft 474 kts 259°
2026-04-22 23:36 27.49574 67.44357 29729 ft 474 kts 259°
2026-04-22 23:37 27.48322 67.37065 29764 ft 474 kts 259°
2026-04-22 23:37 27.47074 67.29817 29761 ft 474 kts 259°
2026-04-22 23:38 27.45826 67.22527 29798 ft 474 kts 260°
2026-04-22 23:38 27.44676 67.15205 29836 ft 475 kts 261°
2026-04-22 23:39 27.43570 67.07871 29834 ft 475 kts 261°
2026-04-22 23:39 27.42462 67.00533 29863 ft 475 kts 261°
2026-04-22 23:40 27.41347 66.93207 29863 ft 475 kts 261°
2026-04-22 23:40 27.40416 66.87120 29877 ft 475 kts 260°
2026-04-22 23:41 27.39105 66.78591 29879 ft 476 kts 260°
2026-04-22 23:41 27.37974 66.71253 29891 ft 476 kts 260°
2026-04-22 23:42 27.37024 66.65111 29891 ft 475 kts 260°
2026-04-22 23:42 27.35886 66.57785 29900 ft 475 kts 260°
2026-04-22 23:43 27.34744 66.50453 29906 ft 475 kts 260°
2026-04-22 23:43 27.33609 66.43191 29906 ft 475 kts 260°
2026-04-22 23:44 27.32462 66.35877 29907 ft 475 kts 260°
2026-04-22 23:44 27.31302 66.28561 29910 ft 475 kts 260°
2026-04-22 23:45 27.30128 66.21257 29908 ft 474 kts 260°
2026-04-22 23:45 27.28963 66.13964 29909 ft 474 kts 260°
2026-04-22 23:46 27.27601 66.06718 29907 ft 474 kts 252°
2026-04-22 23:46 27.25071 65.99873 29909 ft 474 kts 245°
2026-04-22 23:47 27.22200 65.93204 29906 ft 475 kts 245°
2026-04-22 23:47 27.19369 65.86508 29908 ft 474 kts 245°
2026-04-22 23:48 27.16616 65.79846 29900 ft 473 kts 245°
2026-04-22 23:48 27.13856 65.73127 29900 ft 473 kts 245°
2026-04-22 23:49 27.11093 65.66414 29900 ft 473 kts 245°
2026-04-22 23:49 27.08332 65.59719 29905 ft 472 kts 245°
2026-04-22 23:50 27.05574 65.53047 29902 ft 470 kts 245°
2026-04-22 23:50 27.02822 65.46401 29905 ft 470 kts 245°
2026-04-22 23:51 27.00063 65.39749 29907 ft 470 kts 245°
2026-04-22 23:51 26.97320 65.33145 29908 ft 470 kts 245°
2026-04-22 23:52 26.94558 65.26506 29895 ft 469 kts 245°
2026-04-22 23:52 26.91792 65.19889 29895 ft 468 kts 245°
2026-04-22 23:53 26.89016 65.13285 29892 ft 468 kts 245°
2026-04-22 23:53 26.86247 65.06678 29897 ft 468 kts 245°
2026-04-22 23:54 26.83480 65.00074 29900 ft 468 kts 245°
2026-04-22 23:54 26.80712 64.93473 29899 ft 468 kts 245°
2026-04-22 23:55 26.77943 64.86879 29900 ft 468 kts 245°
2026-04-22 23:55 26.75171 64.80291 29895 ft 468 kts 245°
2026-04-22 23:56 26.72398 64.73710 29901 ft 468 kts 245°
2026-04-22 23:56 26.69620 64.67129 29890 ft 468 kts 245°
2026-04-22 23:57 26.66858 64.60597 29898 ft 468 kts 245°
2026-04-22 23:57 26.64073 64.54018 29897 ft 468 kts 245°
2026-04-22 23:58 26.61288 64.47452 29893 ft 468 kts 245°
2026-04-22 23:58 26.58493 64.40873 29896 ft 468 kts 245°
2026-04-22 23:59 26.55692 64.34320 29895 ft 467 kts 245°
2026-04-22 23:59 26.52902 64.27813 29880 ft 467 kts 245°
2026-04-23 00:00 26.48708 64.18002 29888 ft 466 kts 245°
2026-04-23 00:01 26.45908 64.11457 29869 ft 467 kts 245°
2026-04-23 00:01 26.43107 64.04918 29885 ft 467 kts 245°
2026-04-23 00:02 26.40308 63.98394 29878 ft 465 kts 245°
2026-04-23 00:02 26.37508 63.91880 29862 ft 465 kts 245°
2026-04-23 00:03 26.34710 63.85379 29875 ft 465 kts 245°
2026-04-23 00:03 26.31907 63.78878 29853 ft 465 kts 245°
2026-04-23 00:04 26.29103 63.72382 29863 ft 465 kts 245°
2026-04-23 00:04 26.26316 63.65937 29846 ft 464 kts 245°
2026-04-23 00:05 26.23513 63.59465 29862 ft 464 kts 245°
2026-04-23 00:05 26.20701 63.52993 29847 ft 464 kts 244°
2026-04-23 00:06 26.17872 63.46528 29841 ft 464 kts 244°
2026-04-23 00:06 26.15054 63.40071 29847 ft 463 kts 245°
2026-04-23 00:07 26.12245 63.33628 29824 ft 463 kts 245°
2026-04-23 00:07 26.09436 63.27188 29823 ft 462 kts 245°
2026-04-23 00:08 26.06635 63.20780 29831 ft 462 kts 245°
2026-04-23 00:08 26.03821 63.14351 29817 ft 462 kts 245°
2026-04-23 00:09 26.00385 63.08322 29830 ft 463 kts 230°
2026-04-23 00:09 25.95859 63.03197 29817 ft 466 kts 225°
2026-04-23 00:10 25.91182 62.98210 29806 ft 466 kts 226°
2026-04-23 00:10 25.86591 62.93179 29810 ft 466 kts 226°
2026-04-23 00:11 25.82019 62.88084 29807 ft 466 kts 227°
2026-04-23 00:11 25.77445 62.82975 29805 ft 466 kts 227°
2026-04-23 00:12 25.72875 62.77879 29803 ft 464 kts 227°
2026-04-23 00:12 25.68327 62.72814 29804 ft 464 kts 227°
2026-04-23 00:13 25.63774 62.67752 29806 ft 464 kts 227°
2026-04-23 00:13 25.59212 62.62685 29807 ft 464 kts 227°
2026-04-23 00:14 25.54656 62.57630 29803 ft 464 kts 227°
2026-04-23 00:14 25.50123 62.52608 29807 ft 464 kts 227°
2026-04-23 00:15 25.45565 62.47564 29802 ft 463 kts 227°
2026-04-23 00:15 25.41008 62.42534 29804 ft 463 kts 227°
2026-04-23 00:16 25.36433 62.37502 29805 ft 463 kts 227°
2026-04-23 00:16 25.31862 62.32468 29800 ft 463 kts 227°
2026-04-23 00:17 25.27297 62.27439 29792 ft 464 kts 227°
2026-04-23 00:17 25.22715 62.22394 29794 ft 466 kts 227°
2026-04-23 00:18 25.18111 62.17333 29802 ft 467 kts 227°
2026-04-23 00:18 25.13496 62.12267 29804 ft 467 kts 227°
2026-04-23 00:19 25.08883 62.07208 29804 ft 467 kts 227°
2026-04-23 00:19 25.04270 62.02154 29804 ft 467 kts 227°
2026-04-23 00:20 24.99684 61.97136 29800 ft 467 kts 227°
2026-04-23 00:20 24.95065 61.92086 29801 ft 467 kts 227°
2026-04-23 00:21 24.90454 61.87052 29797 ft 467 kts 227°
2026-04-23 00:21 24.85832 61.82010 29805 ft 468 kts 227°
2026-04-23 00:22 24.81189 61.76964 29800 ft 468 kts 226°
2026-04-23 00:22 24.76547 61.71931 29801 ft 468 kts 226°
2026-04-23 00:23 24.71903 61.66889 29802 ft 468 kts 226°
2026-04-23 00:23 24.67262 61.61851 29803 ft 468 kts 226°
2026-04-23 00:24 24.62625 61.56820 29804 ft 468 kts 226°
2026-04-23 00:24 24.57983 61.51791 29804 ft 468 kts 226°
2026-04-23 00:25 24.53344 61.46770 29803 ft 470 kts 226°
2026-04-23 00:25 24.48675 61.41723 29801 ft 470 kts 226°
2026-04-23 00:26 24.44013 61.36689 29804 ft 470 kts 226°
2026-04-23 00:26 24.39764 61.31275 29803 ft 466 kts 239°
2026-04-23 00:26 24.38336 61.28158 29804 ft 463 kts 250°
2026-04-23 00:27 24.37420 61.24778 29804 ft 462 kts 257°
2026-04-23 00:27 24.36244 61.17838 29802 ft 463 kts 260°
2026-04-23 00:28 24.35255 61.12061 29804 ft 463 kts 258°
2026-04-23 00:28 24.33909 61.05167 29799 ft 463 kts 257°
2026-04-23 00:29 24.32487 60.98298 29795 ft 461 kts 257°
2026-04-23 00:29 24.31053 60.91451 29798 ft 461 kts 257°
2026-04-23 00:30 24.29620 60.84603 29797 ft 461 kts 257°
2026-04-23 00:30 24.28187 60.77757 29799 ft 461 kts 257°
2026-04-23 00:31 24.26753 60.70915 29798 ft 460 kts 257°
2026-04-23 00:31 24.25319 60.64096 29795 ft 460 kts 257°
2026-04-23 00:32 24.23880 60.57267 29795 ft 460 kts 257°
2026-04-23 00:32 24.22449 60.50493 29794 ft 460 kts 257°
2026-04-23 00:33 24.21003 60.43660 29796 ft 460 kts 256°
2026-04-23 00:33 24.19549 60.36839 29796 ft 460 kts 256°
2026-04-23 00:34 24.18081 60.30021 29793 ft 460 kts 256°
2026-04-23 00:34 24.16619 60.23197 29794 ft 460 kts 256°
2026-04-23 00:35 24.15160 60.16374 29790 ft 460 kts 256°
2026-04-23 00:35 24.13696 60.09539 29792 ft 461 kts 256°
2026-04-23 00:36 24.12228 60.02698 29791 ft 462 kts 256°
2026-04-23 00:36 24.10755 59.95855 29791 ft 462 kts 256°
2026-04-23 00:37 24.09280 59.89018 29790 ft 462 kts 256°
2026-04-23 00:37 24.07800 59.82169 29791 ft 463 kts 256°
2026-04-23 00:38 24.06323 59.75355 29792 ft 463 kts 256°
2026-04-23 00:38 24.04833 59.68495 29791 ft 463 kts 256°
2026-04-23 00:39 24.03341 59.61641 29791 ft 463 kts 256°
2026-04-23 00:39 24.01843 59.54777 29788 ft 465 kts 256°
2026-04-23 00:40 24.00332 59.47898 29788 ft 465 kts 256°
2026-04-23 00:40 23.98809 59.41026 29788 ft 465 kts 256°
2026-04-23 00:41 23.97292 59.34154 29785 ft 465 kts 256°
2026-04-23 00:41 23.95776 59.27273 29788 ft 466 kts 256°
2026-04-23 00:42 23.94255 59.20378 29788 ft 467 kts 256°
2026-04-23 00:42 23.92748 59.13479 29782 ft 467 kts 257°
2026-04-23 00:43 23.91397 59.06538 29786 ft 467 kts 258°
2026-04-23 00:43 23.90106 58.99580 29779 ft 468 kts 258°
2026-04-23 00:44 23.88805 58.92602 29780 ft 469 kts 258°
2026-04-23 00:44 23.87491 58.85620 29780 ft 469 kts 258°
2026-04-23 00:45 23.86182 58.78692 29777 ft 469 kts 258°
2026-04-23 00:45 23.84860 58.71719 29777 ft 469 kts 258°
2026-04-23 00:46 23.83534 58.64741 29775 ft 469 kts 258°
2026-04-23 00:46 23.82206 58.57768 29775 ft 469 kts 258°
2026-04-23 00:47 23.80874 58.50797 29776 ft 469 kts 258°
2026-04-23 00:47 23.79539 58.43826 29774 ft 470 kts 258°
2026-04-23 00:48 23.78198 58.36840 29776 ft 470 kts 258°
2026-04-23 00:48 23.76853 58.29850 29775 ft 470 kts 258°
2026-04-23 00:49 23.75501 58.22875 29774 ft 470 kts 258°
2026-04-23 00:49 23.74130 58.15883 29776 ft 472 kts 258°
2026-04-23 00:50 23.72763 58.08865 29781 ft 473 kts 258°
2026-04-23 00:50 23.71398 58.01850 29788 ft 473 kts 258°
2026-04-23 00:51 23.70055 57.94823 29790 ft 473 kts 261°
2026-04-23 00:51 23.70034 57.87744 29801 ft 471 kts 281°
2026-04-23 00:52 23.71608 57.80817 29804 ft 471 kts 286°
2026-04-23 00:52 23.73343 57.73924 29804 ft 471 kts 285°
2026-04-23 00:53 23.74933 57.66985 29799 ft 471 kts 284°
2026-04-23 00:53 23.76445 57.60022 29798 ft 470 kts 284°
2026-04-23 00:54 23.77932 57.53074 29802 ft 470 kts 284°
2026-04-23 00:54 23.79421 57.46129 29799 ft 470 kts 284°
2026-04-23 00:55 23.80911 57.39187 29800 ft 470 kts 284°
2026-04-23 00:55 23.82398 57.32255 29804 ft 467 kts 284°
2026-04-23 00:56 23.83876 57.25350 29804 ft 467 kts 284°
2026-04-23 00:56 23.85349 57.18449 29804 ft 466 kts 284°
2026-04-23 00:57 23.86821 57.11539 29813 ft 467 kts 284°
2026-04-23 00:57 23.88274 57.04701 29817 ft 464 kts 284°
2026-04-23 00:58 23.89731 56.97829 29809 ft 464 kts 284°
2026-04-23 00:58 23.91184 56.90959 29822 ft 463 kts 284°
2026-04-23 00:59 23.92631 56.84098 29828 ft 463 kts 284°
2026-04-23 00:59 23.94074 56.77243 29817 ft 462 kts 283°
2026-04-23 01:00 23.95511 56.70401 29832 ft 462 kts 283°
2026-04-23 01:00 23.96925 56.63572 29831 ft 461 kts 283°
2026-04-23 01:01 23.98344 56.56728 29845 ft 461 kts 283°
2026-04-23 01:01 23.99753 56.49957 29843 ft 459 kts 283°
2026-04-23 01:02 24.01171 56.43141 29841 ft 460 kts 283°
2026-04-23 01:02 24.02576 56.36377 29424 ft 447 kts 283°
2026-04-23 01:02 24.03256 56.33094 28817 ft 440 kts 283°
2026-04-23 01:03 24.03968 56.29838 28145 ft 441 kts 285°
2026-04-23 01:03 24.04889 56.26629 27513 ft 443 kts 288°
2026-04-23 01:03 24.05950 56.23455 26873 ft 446 kts 290°
2026-04-23 01:03 24.07071 56.20280 26212 ft 449 kts 290°
2026-04-23 01:04 24.08211 56.17093 25559 ft 452 kts 290°
2026-04-23 01:04 24.09357 56.13874 24887 ft 455 kts 290°
2026-04-23 01:04 24.11639 56.07379 23547 ft 457 kts 289°
2026-04-23 01:05 24.12768 56.04135 22794 ft 454 kts 289°
2026-04-23 01:05 24.13885 56.00915 22087 ft 450 kts 289°
2026-04-23 01:05 24.14987 55.97731 21408 ft 445 kts 289°
2026-04-23 01:05 24.16080 55.94572 20752 ft 441 kts 289°
2026-04-23 01:06 24.17161 55.91443 20105 ft 438 kts 289°
2026-04-23 01:06 24.18235 55.88333 19461 ft 435 kts 290°
2026-04-23 01:06 24.19306 55.85230 18826 ft 434 kts 289°
2026-04-23 01:06 24.20366 55.82155 18196 ft 429 kts 290°
2026-04-23 01:07 24.21382 55.79136 17505 ft 427 kts 288°
2026-04-23 01:07 24.22259 55.76050 16837 ft 421 kts 285°
2026-04-23 01:07 24.23028 55.72975 16198 ft 417 kts 284°
2026-04-23 01:07 24.23757 55.69907 15576 ft 414 kts 284°
2026-04-23 01:08 24.24475 55.66859 14965 ft 412 kts 284°
2026-04-23 01:08 24.25190 55.63834 14348 ft 409 kts 284°
2026-04-23 01:08 24.25886 55.60832 13747 ft 404 kts 283°
2026-04-23 01:08 24.26508 55.57831 13128 ft 401 kts 281°
2026-04-23 01:09 24.27085 55.54867 12549 ft 395 kts 281°
2026-04-23 01:09 24.27642 55.51933 12055 ft 392 kts 281°
2026-04-23 01:09 24.28198 55.49003 11767 ft 390 kts 280°
2026-04-23 01:09 24.28722 55.46180 11512 ft 365 kts 280°
2026-04-23 01:10 24.29210 55.43542 11451 ft 341 kts 281°
2026-04-23 01:10 24.29659 55.41059 11307 ft 323 kts 279°
2026-04-23 01:10 24.30059 55.38726 11205 ft 307 kts 281°
2026-04-23 01:10 24.30435 55.36430 10813 ft 298 kts 274°
2026-04-23 01:11 24.30322 55.34215 10356 ft 296 kts 259°
2026-04-23 01:11 24.29868 55.32036 9953 ft 288 kts 255°
2026-04-23 01:11 24.29365 55.29954 9417 ft 278 kts 255°
2026-04-23 01:11 24.28873 55.27931 8941 ft 273 kts 255°
2026-04-23 01:12 24.28393 55.25918 8458 ft 272 kts 255°
2026-04-23 01:12 24.27923 55.23908 7998 ft 272 kts 255°
2026-04-23 01:12 24.27460 55.21903 7575 ft 271 kts 255°
2026-04-23 01:12 24.27001 55.19894 7133 ft 272 kts 255°
2026-04-23 01:13 24.26545 55.17885 6731 ft 271 kts 255°
2026-04-23 01:13 24.26091 55.15878 6311 ft 271 kts 255°
2026-04-23 01:13 24.25638 55.13874 5883 ft 271 kts 255°
2026-04-23 01:13 24.25188 55.11873 5452 ft 269 kts 255°
2026-04-23 01:14 24.24740 55.09887 5089 ft 268 kts 255°
2026-04-23 01:14 24.24296 55.07914 4728 ft 266 kts 255°
2026-04-23 01:14 24.23854 55.05951 4381 ft 265 kts 255°
2026-04-23 01:14 24.23416 55.04005 4142 ft 256 kts 255°
2026-04-23 01:15 24.23009 55.02190 4006 ft 235 kts 255°
2026-04-23 01:15 24.22628 55.00492 3892 ft 226 kts 255°
2026-04-23 01:15 24.22416 54.99379 3818 ft 225 kts 262°
2026-04-23 01:15 24.22563 54.97683 3763 ft 227 kts 288°
2026-04-23 01:16 24.23238 54.96103 3727 ft 230 kts 296°
2026-04-23 01:16 24.24270 54.94067 3646 ft 231 kts 297°
2026-04-23 01:16 24.25063 54.92539 3603 ft 231 kts 297°
2026-04-23 01:16 24.25603 54.91502 3558 ft 231 kts 297°
2026-04-23 01:17 24.26403 54.89974 3469 ft 232 kts 298°
2026-04-23 01:17 24.27207 54.88441 3293 ft 231 kts 298°
2026-04-23 01:17 24.27984 54.86964 3059 ft 220 kts 298°
2026-04-23 01:17 24.28789 54.85579 3025 ft 213 kts 302°
2026-04-23 01:18 24.29673 54.84290 2973 ft 211 kts 306°
2026-04-23 01:18 24.30583 54.83029 2999 ft 210 kts 306°
2026-04-23 01:18 24.31485 54.81766 2991 ft 211 kts 307°
2026-04-23 01:18 24.32392 54.80504 3014 ft 211 kts 306°
2026-04-23 01:19 24.33291 54.79223 2827 ft 210 kts 306°
2026-04-23 01:19 24.34181 54.77950 2574 ft 209 kts 306°
2026-04-23 01:19 24.35039 54.76711 2251 ft 196 kts 306°
2026-04-23 01:19 24.35855 54.75594 1927 ft 181 kts 308°
2026-04-23 01:20 24.36638 54.74519 1715 ft 179 kts 308°
2026-04-23 01:20 24.37401 54.73455 1512 ft 176 kts 308°
2026-04-23 01:20 24.38143 54.72396 1292 ft 174 kts 308°
2026-04-23 01:20 24.38888 54.71351 1071 ft 173 kts 308°
2026-04-23 01:21 24.39615 54.70325 892 ft 173 kts 308°
2026-04-23 01:21 24.40342 54.69277 648 ft 172 kts 308°
2026-04-23 01:21 24.41073 54.68243 424 ft 171 kts 309°
2026-04-23 01:21 24.41810 54.67225 229 ft 170 kts 308°
2026-04-23 01:22 24.42529 54.66211 91 ft 160 kts 308°
2026-04-23 01:22 24.43107 54.65397 86 ft 107 kts 308°
2026-04-23 01:22 24.43451 54.64915 88 ft 60 kts 307°
2026-04-23 01:22 24.43618 54.64678 87 ft 17 kts 308°
2026-04-23 01:23 24.43638 54.64617 86 ft 6 kts 261°
2026-04-23 01:23 24.43624 54.64588 88 ft 3 kts 233°
2026-04-23 01:23 24.43589 54.64554 88 ft 12 kts 219°
2026-04-23 01:23 24.43516 54.64490 88 ft 13 kts 218°
2026-04-23 01:24 24.43451 54.64436 87 ft 11 kts 217°
2026-04-23 01:24 24.43398 54.64391 85 ft 9 kts 217°
2026-04-23 01:24 24.43335 54.64374 87 ft 11 kts 172°
2026-04-23 01:24 24.43262 54.64438 87 ft 16 kts 129°
2026-04-23 01:25 24.43194 54.64539 87 ft 16 kts 127°
2026-04-23 01:25 24.43132 54.64624 87 ft 13 kts 129°
2026-04-23 01:25 24.43081 54.64694 88 ft 10 kts 127°
2026-04-23 01:25 24.43039 54.64753 85 ft 11 kts 127°
2026-04-23 01:26 24.42982 54.64835 86 ft 15 kts 127°
2026-04-23 01:26 24.42922 54.64922 87 ft 13 kts 127°
2026-04-23 01:26 24.42871 54.64994 89 ft 11 kts 127°
2026-04-23 01:26 24.42828 54.65055 87 ft 9 kts 127°
2026-04-23 01:27 24.42794 54.65103 84 ft 7 kts 129°
2026-04-23 01:27 24.42754 54.65157 88 ft 11 kts 129°
2026-04-23 01:27 24.42688 54.65248 88 ft 16 kts 128°
2026-04-23 01:27 24.42623 54.65320 87 ft 9 kts 164°
2026-04-23 01:28 24.42578 54.65311 86 ft 5 kts 184°
2026-04-23 01:28 24.42527 54.65334 88 ft 10 kts 140°
2026-04-23 01:28 24.42493 54.65375 88 ft 5 kts 127°
2026-04-23 01:28 24.42477 54.65388 86 ft 2 kts 159°
2026-04-23 01:29 24.42454 54.65383 89 ft 6 kts 192°
2026-04-23 01:29 24.42417 54.65362 87 ft 5 kts 215°
2026-04-23 01:29 24.42406 54.65353 88 ft 0 kts 216°